Location: Peterborough
(44.3091°N, 78.3197°W)
Time: 07:33:03
(UTC-04:00)

Vanguard 3 - Pass Details

Date: 22 March 2023
Orbit: 507 x 3246 km, 33.4° (Epoch: 04 June)

Event Time Altitude Azimuth Distance (km) Brightness Sun altitude
Rises 08:24:38 0° 265° (W) 7,156 11.3 11.9°
Reaches altitude 10° 08:29:53 10° 261° (W) 5,980 11.0 12.8°
Maximum altitude 08:46:32 51° 194° (SSW) 2,770 10.1 15.7°
Drops below altitude 10° 08:56:55 10° 122° (ESE) 3,849 12.5 17.5°
Sets 08:59:32 0° 117° (ESE) 4,525 12.6 18.0°
